Find Starlink 34067

NORAD ID: 64115 Int'l Des: 2025-110 Owner: SPXS Country: US Constellation: starlink operational
LEOCIRCULAR

Current View

Loading 3D Globe...

About Starlink 34067

Starlink 34067 (NORAD 64115) is a starlink constellation satellite (v2 mini) launched May 23, 2025 by SPXS of US. It operates in LEO, CIRCULAR orbit with a mass of 575.00 kg.

Upcoming Passes

Passes for default location (London). Set your location on the main map for personalized predictions.

Altitude History

Loading altitude history...

Two-Line Element Set

1 64115U 25110V 26236.62363049 .00066651 00000-0 16118-2 0 9991
2 64115 53.1604 322.5085 0005011 335.3627 24.7138 15.40538304 71656
Epoch: Aug 24, 2026 • Age: 21 hours

Current Status

Altitude 450.7 km
Apogee / Perigee N/A
Velocity 7.65 km/s
Sub-Earth Point 51.14°N, 120.74°W
Launch Date May 23, 2025
Age 1.2 years
Type internet

Technical Details

Classification Payload
Mass 575.00 kg
Dry Mass 530.00 kg
Total Mass 575.00 kg
Length 0.30 m
Diameter 4.10 m
Span 29.00 m
Shape Box + pan
Manufacturer SPXS
Bus Type Starlink V2MO
Phase Status In Orbit
Owner/State SPXS/US

Most Searched